Weather in Arkhangel'skoye

Russia / Tula Oblast     53°19′48″N   37°06′35″E
temp.,
°C
wind,
m/s
gust,
m/s
humid.,
%
clouds,
%
prec.,
mm/h
press.,
hPa
HPBL,
m
18 april, sun
sun1800:00+5s349387 0.1 1018232
03:00+3w2493100 0.1 1018108
06:00+3nne119451 0.0 101810
09:00+6e3483100 0.2 1018522
12:00+6ene4483100 2.1 1019624
15:00+9e236793 2.3 1018817
18:00+9e226799 0.1 1018118
21:00+7ene337798 0.2 101851
19 april, mon
mon1900:00+5ene3483100 0.2 101861
03:00+6ne51089100 0.2 1018255
06:00+5ne5109085 0.2 1018389
09:00+7ene4789100 0.4 1018545
12:00+8e3582100 0.6 1018608
15:00+6ne5892100 1.8 1018519
18:00+6ene71091100 0.4 1018543
21:00+5ene61194100 1.2 1019535
20 april, tue
tue2000:00+5ene51096100 0.0 1018556
03:00+5e4996100 0.0 1018412
06:00+5ene5995100 0.0 1016344
09:00+6e71293100 0.2 1016529
12:00+8e71291100 0.3 1014701
15:00+8ene91486100 0.6 1011909
18:00+5ene101792100 4.3 1008885
21:00+5e112392100 13.4 10031482
21 april, wed
wed2100:00+7ese111992100 1.5 998812
03:00+9se91592100 1.8 9971009
06:00+7s71291100 0.6 997739
09:00+3ssw81396100 2.0 1001711
12:00+5sw81282100 0.1 10041133
15:00+5sw91487100 0.2 10081141
18:00+6sw8158245 0.1 10111169
21:00+5ssw61287100 0.1 1014438
22 april, thu
thu2200:00+4ssw5118785 0.2 1016282
03:00+5sw4986100 0.2 1018271
06:00+5ssw498799 0.0 1019248
09:00+9ssw587490 0.1 1020600
12:00+12sw786357 0.4 10211352
15:00+12ssw6861100 1.5 10211538
18:00+12ssw587047 0.8 1022701
21:00+8s378952 2.1 1023149